Regional Weather Roundup
Issued by NWS Sterling, VA

Home | Current Version | Previous Version | Text Only | Print | Product List | Glossary On
Versions: 1 2 3 4 5 6 7 8 9 10 11 12 13 14 15 16 17 18 19 20 21 22 23 24 25 26 27
000
ASUS41 KLWX 240910
RWRLWX

REGIONAL WEATHER ROUNDUP
NATIONAL WEATHER SERVICE BALTIMORE MD/WASHINGTON DC
500 AM EDT THU APR 24 2014

Note: "FAIR" indicates few or no clouds below 12,000 feet
with no significant weather and/or obstructions to visibility.
 TC=TEMPERATURE CELSIUS

 * =Non NWS site. Station does not report precipitation (e.g. rain,
    snow, etc.), thunder, or fog.

DCZ001-MDZ009-015-VAZ040>042-051-053>054-241000-
WASHINGTON METRO

CITY           SKY/WX    TMP DP  RH WIND       PRES   REMARKS
WASHINGTON NAT CLEAR     47  25  42 NW12      30.06R
DULLES         CLEAR     41  24  51 NW12      30.06R
ANDREWS AFB    CLEAR     44  27  50 W8        30.04R
FT BELVOIR     CLEAR     44  26  48 NW9       30.06R
QUANTICO       CLEAR     45  27  49 NW10      30.07R
COLLEGE PARK*  CLEAR     45  28  53 W5        30.04R
LEESBURG*      CLEAR     43  27  52 NW12      30.06R
MANASSAS*      CLEAR     37  34  87 CALM      30.06S
GAITHERSBURG*  CLEAR     37  23  56 NW7       30.07R

$$

MDZ006>007-011-014-241000-
BALTIMORE METRO

CITY           SKY/WX    TMP DP  RH WIND       PRES   REMARKS
BWI AIRPORT    CLEAR     38  28  67 W7        30.02R
MD SCIENCE CTR   N/A     44  26  49 MISG      30.02R
MARTIN STATE   CLEAR     43  28  56 W10       30.02S
ANNAPOLIS      CLEAR     46  29  51 NW7       30.02R
FORT MEADE*    CLEAR     36  30  80 W5        30.06R

$$

MDZ012-015-019>023-241000-
MARYLAND EASTERN SHORE

CITY           SKY/WX    TMP DP  RH WIND       PRES   REMARKS
OCEAN CITY     CLEAR     41  31  67 NW6       29.99R
SALISBURY      CLEAR     46  30  53 W7        30.00R
BAY BRIDGE AP* CLEAR     45  30  57 NW13G18   30.02R
CAMBRIDGE*     CLEAR     48  30  49 NW10G18   30.01R
EASTON*        CLEAR     46  32  58 NW10G16   30.04R

$$

MDZ017>025-241000-
SOUTHERN MARYLAND

CITY           SKY/WX    TMP DP  RH WIND       PRES   REMARKS
PATUXENT RIVER CLEAR     45  28  51 NW9       30.03R
ST INIGOES     CLEAR     44  30  57 NW6       30.03R
LEONARDTOWN*   CLEAR     43  28  56 W6        30.05R

$$

MDZ003>005-241000-
NORTH CENTRAL MARYLAND

CITY           SKY/WX    TMP DP  RH WIND       PRES   REMARKS
FREDERICK*     CLEAR     39  28  65 NW8       30.07R
HAGERSTOWN APT CLEAR     37  22  54 W12       30.05R
WESTMINSTER*   CLEAR     39  23  52 W8        30.00S

$$

MDZ501>502-241000-
WESTERN MARYLAND

CITY           SKY/WX    TMP DP  RH WIND       PRES   REMARKS
OAKLAND*       CLEAR     30   9  40 W3        30.03R
CUMBERLAND*    CLEAR     37  19  48 NW3       30.12S

$$

VAZ025>031-241000-
SHENANDOAH VALLEY

CITY           SKY/WX    TMP DP  RH WIND       PRES   REMARKS
WINCHESTER*    CLEAR     39  21  48 NW12      30.06R
STAUNTON*      CLEAR     32  27  81 CALM      30.08R

$$

WVZ021-048>050-054>055-241000-
EASTERN WEST VIRGINIA PANHANDLE

CITY           SKY/WX    TMP DP  RH WIND       PRES   REMARKS
MARTINSBURG    CLEAR     42  17  36 NW15      30.07R
PETERSBURG*    CLEAR     37  33  85 CALM      30.09S

$$

VAZ036>039-050-241000-
CENTRAL FOOTHILLS

CITY           SKY/WX    TMP DP  RH WIND       PRES   REMARKS
CHARLOTTESVILL CLEAR     44  25  47 NW5       30.05R
CULPEPER*      CLEAR     37  28  70 CALM      30.07R

$$

VAZ055>057-241000-
NORTH AND CENTRAL PIEDMONT

CITY           SKY/WX    TMP DP  RH WIND       PRES   REMARKS
FREDERICKSBRG* CLEAR     46  30  53 N5        30.05S
STAFFORD*      CLEAR     42  30  64 CALM      30.10R

$$

NCZ024-NYZ072-PAZ021-071-VAZ022-071-241000-
OTHER REGIONAL OBSERVATIONS

CITY           SKY/WX    TMP DP  RH WIND       PRES   REMARKS
NEW YORK CITY  CLEAR     43  23  45 VRB7G20   29.87R
PHILADELPHIA   CLEAR     45  21  38 W9        29.96R
PITTSBURGH     PTCLDY    31  19  61 CALM      30.10R
ROANOKE        CLEAR     42  30  62 CALM      30.09R
RICHMOND       CLEAR     42  30  62 CALM      30.05R
RALEIGH        PTCLDY    46  33  60 E3        30.05R

$$

ANZ530>537-241000-
MARINE OBSERVATIONS

STATION/POSITION TIME  TEMP    WIND        PRES
                       AIR SEA DIR/SP/G
                 (UTC) (F)     (DEG/KT/KT) (MB)
THOMAS PT LIGHT  0900   46 53  300/ 15/ 17 1017.0R
BALT KEY BRIDGE  0900   45     280/ 12/ 13 1016.5S
COVE POINT       0900   47     320/ 11/ 15 1016.5R
LEWISETTA        0900   49 57  320/ 13/ 17 1017.0R
SOLOMONS ISLAND  0900      55                N/A
PINEY POINT      0900          340/ 20/ 22   N/A

$$




USA.gov is the U.S. government's official web portal to all federal, state and local government web resources and services.